• En España
  • Lista de países
  • Para 7 días
  • Temperatura del agua
  • Mapa Satelital
  • El tiempo en el mapa
  • Informadores
  • user-avatar
    Iniciar sesión

    Tiempo cada hora Mendoza

    Hoy, 22 Octubre, Lunes

    Tiempo Temperatura Precipitaciones Viento Presión Humedad
    00:00 +18°C° 0 mm 4 mps 698 mmHg 69%
    01:00 +17°C° 0 mm 4 mps 697 mmHg 72%
    02:00 +17°C° 0 mm 4 mps 697 mmHg 72%
    03:00 +17°C° 0 mm 4 mps 697 mmHg 73%
    04:00 +15°C° 0 mm 4 mps 697 mmHg 73%
    05:00 +15°C° 0.1 mm 4 mps 698 mmHg 73%
    06:00 +15°C° 0.1 mm 4 mps 698 mmHg 73%
    07:00 +15°C° 0.1 mm 5 mps 698 mmHg 74%
    08:00 +17°C° 0 mm 4 mps 698 mmHg 70%
    09:00 +18°C° 0 mm 4 mps 698 mmHg 66%
    10:00 +18°C° 0 mm 4 mps 698 mmHg 62%
    11:00 +19°C° 0 mm 4 mps 698 mmHg 57%
    12:00 +21°C° 0 mm 4 mps 698 mmHg 52%
    13:00 +22°C° 0 mm 4 mps 698 mmHg 47%
    14:00 +22°C° 0 mm 4 mps 698 mmHg 47%
    15:00 +22°C° 0 mm 4 mps 697 mmHg 48%
    16:00 +22°C° 0 mm 4 mps 697 mmHg 48%
    17:00 +20°C° 0 mm 4 mps 698 mmHg 52%
    18:00 +19°C° 0 mm 4 mps 698 mmHg 57%
    19:00 +18°C° 0 mm 4 mps 699 mmHg 61%
    20:00 +18°C° 0 mm 4 mps 699 mmHg 64%
    21:00 +17°C° 0 mm 4 mps 699 mmHg 67%
    22:00 +15°C° 0 mm 4 mps 699 mmHg 70%
    23:00 +15°C° 0 mm 4 mps 699 mmHg 71%

    Mañana, 23 Octubre, Martes

    Tiempo Temperatura Precipitaciones Viento Presión Humedad
    00:00 +14°C° 0 mm 4 mps 699 mmHg 71%
    01:00 +14°C° 0 mm 5 mps 699 mmHg 72%
    02:00 +13°C° 0 mm 5 mps 698 mmHg 71%
    03:00 +13°C° 0 mm 5 mps 698 mmHg 69%
    04:00 +13°C° 0 mm 5 mps 698 mmHg 68%
    05:00 +13°C° 0 mm 5 mps 698 mmHg 65%
    06:00 +14°C° 0 mm 5 mps 699 mmHg 62%
    07:00 +15°C° 0 mm 5 mps 699 mmHg 59%
    08:00 +16°C° 0 mm 5 mps 699 mmHg 55%
    09:00 +19°C° 0 mm 5 mps 699 mmHg 52%
    10:00 +20°C° 0 mm 5 mps 698 mmHg 48%
    11:00 +21°C° 0 mm 4 mps 698 mmHg 47%
    12:00 +21°C° 0 mm 4 mps 697 mmHg 46%
    13:00 +22°C° 0 mm 4 mps 697 mmHg 45%
    14:00 +22°C° 0 mm 4 mps 697 mmHg 46%
    15:00 +22°C° 0 mm 4 mps 696 mmHg 47%
    16:00 +22°C° 0 mm 4 mps 696 mmHg 48%
    17:00 +21°C° 0 mm 4 mps 697 mmHg 52%
    18:00 +20°C° 0 mm 4 mps 697 mmHg 57%
    19:00 +19°C° 0 mm 5 mps 698 mmHg 62%
    20:00 +17°C° 0 mm 5 mps 698 mmHg 64%
    21:00 +17°C° 0 mm 5 mps 698 mmHg 66%
    22:00 +16°C° 0 mm 5 mps 698 mmHg 67%
    23:00 +17°C° 0 mm 4 mps 698 mmHg 67%

    Pasado mañana, 24 Octubre, Miércoles

    Tiempo Temperatura Precipitaciones Viento Presión Humedad
    00:00 +15°C° 0 mm 4 mps 697 mmHg 66%
    01:00 +15°C° 0 mm 4 mps 697 mmHg 65%
    02:00 +14°C° 0 mm 4 mps 697 mmHg 65%
    03:00 +14°C° 0 mm 4 mps 697 mmHg 65%
    04:00 +14°C° 0 mm 4 mps 697 mmHg 64%
    05:00 +14°C° 0 mm 4 mps 697 mmHg 62%
    06:00 +15°C° 0 mm 4 mps 698 mmHg 60%
    07:00 +17°C° 0 mm 4 mps 698 mmHg 57%
    08:00 +18°C° 0 mm 4 mps 698 mmHg 54%
    09:00 +20°C° 0 mm 4 mps 698 mmHg 52%
    10:00 +21°C° 0 mm 4 mps 698 mmHg 49%
    11:00 +22°C° 0 mm 5 mps 698 mmHg 48%
    12:00 +23°C° 0 mm 5 mps 698 mmHg 47%
    13:00 +23°C° 0 mm 5 mps 697 mmHg 46%
    14:00 +23°C° 0 mm 5 mps 697 mmHg 48%
    15:00 +23°C° 0 mm 5 mps 697 mmHg 50%
    16:00 +22°C° 0 mm 4 mps 697 mmHg 53%
    17:00 +22°C° 0.1 mm 4 mps 698 mmHg 57%
    18:00 +21°C° 0.1 mm 4 mps 698 mmHg 61%
    19:00 +20°C° 0.1 mm 4 mps 699 mmHg 65%
    20:00 +20°C° 0.1 mm 4 mps 699 mmHg 68%
    21:00 +19°C° 0.1 mm 4 mps 699 mmHg 72%
    22:00 +18°C° 0.1 mm 3 mps 699 mmHg 76%
    23:00 +18°C° 0 mm 4 mps 699 mmHg 77%

    25 Octubre, Jueves

    Tiempo Temperatura Precipitaciones Viento Presión Humedad
    00:00 +17°C° 0 mm 4 mps 698 mmHg 79%
    01:00 +17°C° 0 mm 4 mps 698 mmHg 81%
    02:00 +15°C° 0 mm 4 mps 698 mmHg 80%
    03:00 +15°C° 0 mm 4 mps 698 mmHg 80%
    04:00 +15°C° 0 mm 4 mps 698 mmHg 80%
    05:00 +15°C° 0 mm 4 mps 698 mmHg 77%
    06:00 +15°C° 0 mm 4 mps 699 mmHg 73%
    07:00 +17°C° 0 mm 4 mps 699 mmHg 70%
    08:00 +18°C° 0 mm 4 mps 699 mmHg 63%
    09:00 +20°C° 0 mm 4 mps 699 mmHg 55%
    10:00 +21°C° 0 mm 4 mps 699 mmHg 48%
    11:00 +22°C° 0 mm 4 mps 698 mmHg 46%
    12:00 +23°C° 0 mm 4 mps 698 mmHg 44%
    13:00 +25°C° 0 mm 4 mps 697 mmHg 41%
    14:00 +25°C° 0 mm 4 mps 697 mmHg 42%
    15:00 +25°C° 0 mm 4 mps 697 mmHg 42%
    16:00 +25°C° 0 mm 4 mps 697 mmHg 42%
    17:00 +24°C° 0.1 mm 3 mps 697 mmHg 45%
    18:00 +22°C° 0.1 mm 3 mps 698 mmHg 48%
    19:00 +22°C° 0.1 mm 3 mps 698 mmHg 51%
    20:00 +21°C° 0.2 mm 3 mps 698 mmHg 56%
    21:00 +20°C° 0.2 mm 3 mps 698 mmHg 61%
    22:00 +19°C° 0.2 mm 3 mps 698 mmHg 65%
    23:00 +18°C° 0 mm 3 mps 698 mmHg 66%

    26 Octubre, Viernes

    Tiempo Temperatura Precipitaciones Viento Presión Humedad
    00:00 +18°C° 0 mm 3 mps 698 mmHg 67%
    01:00 +17°C° 0 mm 3 mps 697 mmHg 68%
    02:00 +17°C° 0 mm 3 mps 697 mmHg 69%
    03:00 +16°C° 0 mm 3 mps 697 mmHg 69%
    04:00 +15°C° 0 mm 4 mps 698 mmHg 69%
    05:00 +17°C° 0 mm 4 mps 698 mmHg 67%
    06:00 +17°C° 0 mm 4 mps 698 mmHg 65%
    07:00 +18°C° 0 mm 4 mps 699 mmHg 64%
    08:00 +19°C° 0 mm 4 mps 699 mmHg 61%
    09:00 +20°C° 0 mm 4 mps 698 mmHg 59%
    10:00 +21°C° 0 mm 4 mps 698 mmHg 56%
    11:00 +22°C° 0 mm 3 mps 698 mmHg 53%
    12:00 +24°C° 0 mm 3 mps 697 mmHg 50%
    13:00 +25°C° 0 mm 3 mps 697 mmHg 46%
    14:00 +25°C° 0 mm 3 mps 697 mmHg 45%
    15:00 +26°C° 0 mm 3 mps 696 mmHg 44%
    16:00 +26°C° 0 mm 3 mps 696 mmHg 43%
    17:00 +25°C° 0 mm 3 mps 696 mmHg 47%
    18:00 +24°C° 0 mm 3 mps 696 mmHg 51%
    19:00 +23°C° 0 mm 2 mps 697 mmHg 54%
    20:00 +23°C° 0 mm 2 mps 696 mmHg 56%
    21:00 +22°C° 0 mm 3 mps 696 mmHg 57%
    22:00 +21°C° 0 mm 3 mps 696 mmHg 58%
    23:00 +21°C° 0.1 mm 3 mps 696 mmHg 59%

    27 Octubre, Sábado

    Tiempo Temperatura Precipitaciones Viento Presión Humedad
    00:00 +20°C° 0.1 mm 3 mps 695 mmHg 61%
    01:00 +20°C° 0.1 mm 3 mps 695 mmHg 62%
    02:00 +20°C° 0.1 mm 3 mps 694 mmHg 64%
    03:00 +19°C° 0.1 mm 3 mps 694 mmHg 66%
    04:00 +19°C° 0.1 mm 3 mps 694 mmHg 68%
    05:00 +19°C° 0.2 mm 3 mps 695 mmHg 67%
    06:00 +20°C° 0.2 mm 4 mps 695 mmHg 66%
    07:00 +20°C° 0.2 mm 4 mps 696 mmHg 65%
    08:00 +22°C° 0.3 mm 5 mps 696 mmHg 61%
    09:00 +23°C° 0.3 mm 5 mps 696 mmHg 57%
    10:00 +24°C° 0.3 mm 6 mps 697 mmHg 53%
    11:00 +24°C° 0.8 mm 6 mps 697 mmHg 53%
    12:00 +24°C° 0.8 mm 6 mps 696 mmHg 53%
    13:00 +23°C° 0.8 mm 6 mps 696 mmHg 53%
    14:00 +23°C° 0.8 mm 6 mps 697 mmHg 54%
    15:00 +23°C° 0.8 mm 6 mps 697 mmHg 54%
    16:00 +23°C° 0.8 mm 5 mps 697 mmHg 55%
    17:00 +22°C° 0.6 mm 4 mps 698 mmHg 58%
    18:00 +21°C° 0.6 mm 4 mps 698 mmHg 62%
    19:00 +21°C° 0.6 mm 3 mps 699 mmHg 65%
    20:00 +20°C° 0.9 mm 2 mps 699 mmHg 68%
    21:00 +20°C° 0.9 mm 2 mps 700 mmHg 71%
    22:00 +20°C° 0.9 mm 1 mps 700 mmHg 73%
    23:00 +19°C° 0.7 mm 2 mps 700 mmHg 74%

    28 Octubre, Domingo

    Tiempo Temperatura Precipitaciones Viento Presión Humedad
    00:00 +18°C° 0.7 mm 2 mps 700 mmHg 74%
    01:00 +18°C° 0.7 mm 2 mps 700 mmHg 75%
    02:00 +18°C° 0.3 mm 2 mps 700 mmHg 76%
    03:00 +17°C° 0.3 mm 2 mps 700 mmHg 76%
    04:00 +17°C° 0.3 mm 2 mps 700 mmHg 77%
    05:00 +17°C° 0.2 mm 2 mps 700 mmHg 75%
    06:00 +17°C° 0.2 mm 3 mps 700 mmHg 73%
    07:00 +17°C° 0.2 mm 3 mps 701 mmHg 71%
    08:00 +18°C° 0.2 mm 3 mps 701 mmHg 66%
    09:00 +18°C° 0.2 mm 3 mps 701 mmHg 62%
    10:00 +19°C° 0.2 mm 3 mps 701 mmHg 58%
    11:00 +19°C° 0.3 mm 3 mps 700 mmHg 56%
    12:00 +20°C° 0.3 mm 3 mps 700 mmHg 55%
    13:00 +20°C° 0.3 mm 3 mps 699 mmHg 53%
    14:00 +20°C° 0.2 mm 3 mps 699 mmHg 54%
    15:00 +20°C° 0.2 mm 3 mps 699 mmHg 54%
    16:00 +20°C° 0.2 mm 3 mps 699 mmHg 55%
    17:00 +19°C° 0.1 mm 3 mps 699 mmHg 57%
    18:00 +19°C° 0.1 mm 2 mps 699 mmHg 60%
    19:00 +18°C° 0.1 mm 2 mps 700 mmHg 62%
    20:00 +18°C° 0.1 mm 2 mps 700 mmHg 63%
    21:00 +18°C° 0.1 mm 2 mps 700 mmHg 65%
    22:00 +18°C° 0.1 mm 2 mps 700 mmHg 66%
    23:00 +17°C° 0 mm 2 mps 700 mmHg 67%
    Mostrar más